Flag for Norway Weather past 2 weeks in Knarvik, Norway

Now
62 °F

Cool.


Feels Like: 62 °F
Forecast: 56 / 84 °F
Wind: 3 mph from Southeast

Location: Bergen / Florida

Current Time: Jul 2, 2015 at 1:55:23 AM

Latest Report: Jul 2, 2015 at 1:00 AM


Visibility: N/A

Pressure: 30.19 "Hg

Humidity: 62%

Dew point: 49 °F

Location of KnarvikLocation

Historic Weather in Knarvik — Graph

°F

Knarvik temperature yesterday

Maximum temperature yesterday: 74 °F (at 3:00 PM)
Minimum temperature yesterday: 63 °F (at 12:00 AM)
Average temperature yesterday: 67 °F

Past Weeks' High & Low Weather Summary

 TemperatureHumidityPressure
High74 °F (Jun 22, 5:00 PM)90% (Jun 29, 7:00 AM)30.22 "Hg (Jun 29, 7:00 AM)
Low46 °F (Jun 26, 6:00 AM)28% (Jun 22, 4:00 PM)29.69 "Hg (Jun 22, 8:00 PM)
Average56 °F70%29.93 "Hg
* Reported Midnight between Jun 16 and Jun 17 — Midnight between Jul 1 and Jul 2, Knarvik, Weather by CustomWeather, © 2015

Note: Actual official high and low records may vary slightly from our data, if they occured in-between our weather recording intervals... More about our weather records

Advertising

Knarvik weather history for previous 24 hours

 ConditionsComfort  
Time TempWeatherWind HumidityBarometerVisibility
12:00 AM
Thu, Jul 2
62 °FCool.3 mph61%30.20 "HgN/A
10:00 PM
Wed, Jul 1
65 °FMild.2 mph50%30.19 "HgN/A
9:00 PM67 °FMild.2 mph50%30.17 "HgN/A
8:00 PM68 °FPassing clouds.5 mph46%30.18 "Hg34 mi
7:00 PM70 °FMild.3 mph43%30.20 "HgN/A
6:00 PM71 °FMild.5 mph42%30.21 "HgN/A
5:00 PM71 °FScattered clouds.6 mph40%30.22 "Hg34 mi
4:00 PM73 °FMild.3 mph42%30.22 "HgN/A
3:00 PM74 °FMild.2 mph45%30.22 "HgN/A
2:00 PM73 °FPartly sunny.5 mph39%30.21 "Hg34 mi
1:00 PM72 °FMild.6 mph40%30.21 "HgN/A
12:00 PM72 °FMild.6 mph38%30.22 "HgN/A
11:00 AM69 °FOvercast.8 mph45%30.22 "Hg31 mi
10:00 AM67 °FMild.8 mph49%30.21 "HgN/A
9:00 AM65 °FMild.7 mph52%30.20 "HgN/A
8:00 AM65 °FOvercast.8 mph52%30.19 "Hg25 mi
7:00 AM64 °FMild.6 mph53%30.19 "HgN/A
6:00 AM63 °FMild.6 mph57%30.19 "HgN/A
4:00 AM63 °FMild.7 mph55%30.18 "HgN/A
3:00 AM63 °FMild.8 mph56%30.17 "HgN/A
2:00 AM63 °FMild.9 mph54%30.16 "HgN/A
1:00 AM63 °FMild.8 mph54%30.16 "HgN/A
Weather by CustomWeather, © 2015

See weather overviewHow to use our weather pages